Погода Ивано-Франковск

Погода Ивано-Франковск : погода сейчас, прогноз погоды и архив. Всё, что Вы хотите узнать о погоде Ивано-Франковск!

Поиск расширенной информации на нашем сайте:

Другие новости

Новости СМИ2

Главная страница сайта

Новости сайта

03.07.2017

Напоминаем, что на нашем специализированном сайте Метеоцентр.Азия вы можете получить высокодетализированные автоматические прогнозы погоды по пунктам России, СНГ и мира в авиационном формате (включающие направление и скорость ветра, видимость, явления погоды, количество и форму облачности, нижнюю и верхнюю границу облачности).

Рекомендуем: Качественный синускан в наличии stimul20.ru.

Погода Ивано-Франковск - сегодня

Время (UTC), дата Ветер
(°,м/с) 
Видим.   Явления Облачность Т
(°С)
Тd
(°С)
f(%) Тe
(°С)
Pmin
(гПа)
dP
(гПа)
Po
(мм)
O2
(г/м3)
Тmin Tmax R s Состояние
почвы
18 14.10.17 260 (З) 10 км    9/9 1200 м 
[Sc]
+13.2 +7.1 66 +13  1024.1  0.1  743  284    +16.7       
21 14.10.17 270 (З) 10 км  в посл. час дождь  9/9 800 м 
[Sc]
+14.7 +8.8 68 +14  1024.4  0.5  743  283           
00 15.10.17 270 (З) 10 км  {дождь}  8/8 800 м 
[Sc]
+15.2 +10.7 74 +16  1024.6  0.3  744  282      0.0     
03 15.10.17 260 (З) 10 км    9/9 600 м 
[Sc]
+15.4 +10.3 72 +17  1024.2  -0.4  743  282           
06 15.10.17 270 (З) 20000 м    9/9 600 м 
[Sc]
+15.7 +11.3 75 +19  1024.4  0.2  743  281  +13.2    0.0     
09 15.10.17 280 (З) 40000 м    9/9 840 м 
[Sc]
+17.9 +11.7 67 +22  1024.8  0.7  744  279           
12 15.10.17 280 (З) 50000 м    9/9 1000 м 
[Sc]
+19 +11.6 62 +23  1024  -0.7  743  278           
15 15.10.17 300 (СЗ) 50000 м    9/5 1200 м средняя 
[Sc|Ac trans]
+18.1 +11.1 64 +21  1024  -0.1  743  279           
18 15.10.17 280 (З) 20000 м  в посл. час ливневой дождь  10/10 1000 м 
[Sc]
+16.8 +11.7 72 +21  1025.8  1.6  745  280    +20  0.0     
21 15.10.17 280 (З) 20000 м    9/9 1380 м 
[Sc]
+16.2 +12.6 79 +22  1026.6  0.7  745  281           
00 16.10.17 290 (З) 20000 м    10/10 1200 м 
[Sc]
+15.2 +11.9 81 +20  1027.4  0.7  746  282           
03 16.10.17 тихо ()   20000 м    3/3 1000 м 
[Sc]
+12.4 +11.5 94 +16  1027.9  0.1  746  285           
06 16.10.17 250 (З) 10 км    ясно 
+9.7 +9.1 96 +11  1028.5  0.3  746  289  +8.2         
09 16.10.17 тихо ()   20000 м    ясно 
+19.9 +11.6 59 +23  1026.6  -0.7  745  278           
12 16.10.17 070 (В) 20000 м    ясно 
+23 +10.6 45 +25  1024.7  -1.5  744  275           
15 16.10.17 тихо ()   30000 м    ясно 
+23.1 +11.8 49 +27  1023.6  -1  744  274           
18 16.10.17 270 (З) 20000 м    ясно 
+16.6 +9.8 64 +18  1024.7  0.3  744  281    +24.8       
21 16.10.17 240 (ЮЗ) 20000 м    ясно 
+12 +8.4 79 +13  1024.9  -0.3  744  286           
00 17.10.17 030 (СВ) 20000 м    ясно 
+8.5 +7.9 96 +10  1025.9  0.5  744  289           
03 17.10.17 290 (З) 25000 м    ясно 
+6.7 +6.3 97 +8  1026.4  0.3  744  292           
06 17.10.17 тихо ()   20000 м    3/0 верхняя 
[Ci fib]
+8.4 +8 97 +8  1026.8  0.6  745  290  +5.6         
09 17.10.17 280 (З) 20000 м    3/0 верхняя 
[Ci fib]
+21.8 +11.4 52 +25  1025  -0.2  744  276           
12 17.10.17 360 (С) 50000 м    ясно 
+23.9 +12 47 +28  1023.6  -1.1  744  273           
15 17.10.17 060 (СВ) 20000 м    ясно 
+21.7 +13.6 60 +28  1023.1  -0.7  743  275           
18 17.10.17 210 (ЮЗ) 5000 м  дымка  4/0 верхняя 
[Ci fib]
+12 +11.2 95 +15  1024.2  -0.1  743  285    +24.2       
Время (UTC), дата Ветер
(°,м/с) 
Видим.   Явления Облачность Т
(°С)
Тd
(°С)
f(%) Тe
(°С)
Pmin
(гПа)
dP
(гПа)
Po
(мм)
O2
(г/м3)
Тmin Tmax R s Состояние
почвы

Для получения пояснительной информации подведите курсор к названию столбца.

ПОГОДА Ивано-Франковск - архив

Всё, что Вы хотите узнать о погоде Ивано-Франковск - удобно и подробно!

Выберите нужную дату (начиная с 1 января 2015* года) и нажмите кнопку "Найти".
Будут отображены архивные сводки погоды по пункту Ивано-Франковск, начиная с указанной даты.


Отображать данные в формате CSV (для использования в таблицах Excel)


Внимание! Наш архив погоды предназначен исключительно для личного некоммерческого использования в познавательных целях. Если Вам необходимы официальные справки о состоянии погоды (для производственных, юридических, коммерческих и т.п. целей), обращайтесь в органы Росгидромета.

*Примечание: данная дата относится к архиву по метеостанциям СССР (Россия, СНГ, Балтия).
Архив по метеостанциям Зарубежной Европы и Азии (кроме Китая) хранится 10 дней, по другим регионам земного шара (Китай, Африка, Америка, Австралия, Океания) - 1 день.

Ивано-Франковск - район местоположения метеостанции


Название, широта, долгота, высота метеостанции:
Ивано-Франковск 49°ш. 24.4°д. 280 м над ур. моря [Украина]

Дополнительная информация

В oтличие oт бoльшинства пoгoдных сайтoв мы публикуем пoдрoбную метеoинфoрмацию в детальнoм прoфессиoнальнoм фoрмате.

Характеристики температуры и влажнoсти вoздуха измеряются на высoте 2 м в тени вдали oт зданий и деревьев.
Скoрoсть ветра измеряется на высoте 10 м (на урoвне рoста челoвека скoрoсть ветра ниже в 1.5-2 раза). Если метеoстанция нахoдится в гoрoде или в лесу, тo скoрoсть ветра занижена на 2-4 м/с пo сравнению с oткрытым местoм. Скoрoсть ветра над акватoриями крупных рек и oзёр, а также на вершинах хoлмoв на 2-5 м/с выше, чем в oбычных услoвиях.
Атмoсфернoе давление в разных тoчках местнoсти мoжет значительнo oтличаться oт давления на метеoстанции, в зависимoсти oт услoвий рельефа (при пoдъёме на 10 м давление пoнижается примернo на 1 мм рт.ст.).